Regional Weather Roundup
Issued by NWS

Home | Current Version | Previous Version | Text Only | Print | Product List | Glossary Off
Versions: 1 2 3 4 5 6 7 8 9 10 11 12 13 14 15 16 17 18 19 20 21 22 23 24 25 26 27 28 29 30 31 32 33 34 35 36 37 38 39 40 41 42 43 44 45 46 47 48 49 50

364
ASUS43 KLOT 271609
RWRIL

ILLINOIS REGIONAL WEATHER ROUNDUP
NATIONAL WEATHER SERVICE CHICAGO/ROMEOVILLE IL
1100 AM CDT THU JUL 27 2017

NOTE: "FAIR" INDICATES FEW OR NO CLOUDS BELOW 12,000 FEET WITH NO
SIGNIFICANT WEATHER AND/OR OBSTRUCTIONS TO VISIBILITY.

* THESE STATIONS ARE NOT UNDER NWS QUALITY CONTROL. THEY ALSO MAY NOT
  REPORT WEATHER SUCH AS PRECIPITATION OR FOG.

ILZ001-002-007-009-015-016-024-271700-
NORTHWEST ILLINOIS

CITY           SKY/WX    TMP DP  RH WIND       PRES   REMARKS
MOLINE         CLOUDY    77  70  79 N7        29.97S
STERLING*      PTSUNNY   79  73  82 E8        29.97S HX  82
SAVANNA*       PTSUNNY   80  71  74 NE8       29.98S HX  83
$$

ILZ003-004-008-010-011-017-018-271700-
NORTH CENTRAL ILLINOIS

CITY           SKY/WX    TMP DP  RH WIND       PRES   REMARKS
ROCKFORD       CLOUDY    79  69  71 NE12      29.98S HX  81
FREEPORT*      CLOUDY    75  69  83 NE10      30.00S
ROCHELLE*      CLOUDY    78  72  81 E10       29.97S HX  81
DE KALB*       CLOUDY    79  72  80 NE12      29.98S HX  82
PERU*          CLOUDY    75  70  83 NE6       29.96S
$$

ILZ005-006-012>014-019>023-271700-
NORTHEAST ILLINOIS

CITY           SKY/WX    TMP DP  RH WIND       PRES   REMARKS
CHICAGO-OHARE  PTSUNNY   82  69  64 NE10      29.95S HX  85
CHICAGO-MIDWAY PTSUNNY   81  70  69 NE15      29.94R HX  84
AURORA         CLOUDY    79  71  76 NE9       29.96R HX  82
LANSING*       CLOUDY    76  70  83 NE3       29.94S
JOLIET*        PTSUNNY   82  71  70 CALM      29.94S HX  86
WAUKEGAN       MOSUNNY   74  70  87 NE7       29.96S
DUPAGE AIRPORT MOSUNNY   80  70  71 NE13      29.95S HX  83
KANKAKEE*      CLOUDY    76  71  84 CALM      29.95S
WHEELING       PTSUNNY   76  70  82 N14       29.98R
MORRIS*        CLOUDY    77  73  85 CALM      29.93S
ROMEOVILLE*    CLOUDY    79  69  70 NE5       29.94F HX  81
NORTHERLY ISL    N/A     75  68  78 N15         N/A
$$

LMZ740>746-271700-
SOUTHERN LAKE MICHIGAN

STATION/POSITION SKY/WX   TEMP    WIND        PRES    VSBY  WAVE
                          AIR SEA DIR/SP/G                  HT/PER
                          (F)     (DEG/KT/KT) (MB)    (MI)  (FT/S)
SOUTHERN BUOY              70 71   10/ 12/ 14 1013.9          1
WILMETTE HARBOR            71 72  340/ 12/ 16   N/A           2/ 3
HARRISON CRIB              73     350/ 13/ 14   N/A
BURNHAM HARBOR             76                   N/A
CALUMET HARBOR             73     340/ 10/ 13 1013.7R
BURNS HARBOR               74     330/  6/  7 1014.2R
MICHIGAN CITY              75     310/  5/  6   N/A
MICHIGAN CITY 6N           74 75   10/  6/  6   N/A           0
ST. JOSEPH                 75 75   20/  6/  8 1013.2          0
$$

ILZ025>027-034>036-040-047-049-050-058-095>099-271700-
WEST-CENTRAL ILLINOIS

CITY           SKY/WX    TMP DP  RH WIND       PRES   REMARKS
QUINCY         CLOUDY    78  74  87 NE8       29.95R HX  81
GALESBURG*     CLOUDY    76  71  83 N5        29.97S
MACOMB*        CLOUDY    77  73  86 NE5       29.98S
JACKSONVILLE*  RAIN      74  73  98 SW3       29.94S
PITTSFIELD*    HVY RAIN  76  75  98 S6        29.95S
$$

ILZ028>032-037-038-041>044-048-051>054-059>061-271700-
CENTRAL ILLINOIS

CITY           SKY/WX    TMP DP  RH WIND       PRES   REMARKS
PONTIAC        CLOUDY    77  76  95 CALM      29.95S
BLOOMINGTON    CLOUDY    76  72  87 N8        29.96S
DECATUR        CLOUDY    75  73  93 W7        29.94F
PEORIA         CLOUDY    78  73  84 CALM      29.94S HX  81
LACON*         LGT RAIN  76  73  91 N3        29.94S
LINCOLN*       CLOUDY    80  76  88 CALM      29.94S HX  85
SPRINGFIELD    CLOUDY    77  76  96 W8        29.94S
TAYLORVILLE    CLOUDY    77  74  92 SW8       29.95F
$$

ILZ033-039-045-046-055>057-062-063-271700-
EAST-CENTRAL ILLINOIS

CITY           SKY/WX    TMP DP  RH WIND       PRES   REMARKS
CHAMPAIGN      CLOUDY    77  74  90 W8        29.95S
RANTOUL*       CLOUDY    80  75  86 W7        29.94S HX  84
MATTOON        CLOUDY    75  74  96 W9        29.95S
PARIS*         CLOUDY    74  72  92 W13       29.96F
$$

ILZ079-100>102-271700-
SOUTHWEST ILLINOIS

CITY           SKY/WX    TMP DP  RH WIND       PRES   REMARKS
ALTON          CLOUDY    75  73  94 SW7       29.97S
BELLEVILLE     PTSUNNY   77  76  94 S3        29.98S
CAHOKIA*       CLOUDY    80  76  87 SW3       29.96F HX  86
SPARTA*        DRIZZLE   78  76  94 SW3       29.99S HX  80
$$

ILZ064>066-069>071-074>076-080>082-084>086-088>090-092>094-271700-
SOUTH-CENTRAL ILLINOIS

CITY           SKY/WX    TMP DP  RH WIND       PRES   REMARKS
CARBONDALE     CLOUDY    82  77  84 W5        29.97S HX  90
CAIRO*         CLOUDY    85  78  78 W7        29.97S HX  97
EFFINGHAM*     CLOUDY    77  76  96 SW7       29.98S
MARION         CLOUDY    84  82  94 W6        29.98S HX 101
MT. VERNON     LGT RAIN  77  75  93 SE3       29.98S
CENTRALIA*     LGT RAIN  76  76  98 CALM      29.98R
SALEM*         CLOUDY    78  75  90 SW5       29.98S HX  81
METROPOLIS*    CLOUDY    86  78  76 W8        29.98S HX  97
$$

ILZ067-068-072-073-078-083-087-091-271700-
SOUTHEAST ILLINOIS

CITY           SKY/WX    TMP DP  RH WIND       PRES   REMARKS
LAWRENCEVILLE  CLOUDY    79  74  84 NW7       29.97S HX  82
FLORA*         CLOUDY    78  75  89 SW5         N/A  HX  81
FAIRFIELD*     CLOUDY    76  76  99 CALM      29.97S
HARRISBURG*    CLOUDY    83  78  84 CALM      29.97S HX  92
ROBINSON*      CLOUDY    77  73  88 W5        29.97F
CARMI*         CLOUDY    77  76  95 CALM      29.97S
$$

ABBREVIATIONS USED IN REMARKS
   TC - TEMPERATURE IN CELSIUS
  WCI - WIND CHILL INDEX
   HX - HEAT INDEX
  VSB - VISIBILITY
$$





USA.gov is the U.S. government's official web portal to all federal, state and local government web resources and services.